Hourly Data Report for September 08, 2017

All times are specified in Local Standard Time (LST). Add 1 hour to adjust for Daylight Saving Time where and when it is observed.

SANDY LAKE A
ONTARIO

53°03'51.000" N
93°20'40.000" W
289.90 m
6017401
71587
ZSJ

Download Data

Hourly Data (September 2017)
Hourly Data Report for September 8, 2017
Temp Definition
°C
Dew Point Temp Definition
°C
Rel Hum Definition
%
Wind Dir Definition
10's deg

Wind Spd Definition
km/h
Visibility Definition
km
Stn Press Definition
kPa
Hmdx Definition


Wind Chill Definition


Weather Definition


TIME
00:00 Legend Double Dagger 4.6 4.5 99 LegendMM LegendMM 16.1 98.78     LegendNANA
01:00 Legend Double Dagger 4.7 4.6 99 LegendMM LegendMM 16.1 98.79     LegendNANA
02:00 Legend Double Dagger 5.3 5.1 99 LegendMM LegendMM 16.1 98.82     LegendNANA
03:00 Legend Double Dagger 7.9 6.2 89 LegendMM LegendMM 16.1 98.84     LegendNANA
04:00 Legend Double Dagger 6.6 5.5 92 LegendMM LegendMM 16.1 98.86     LegendNANA
05:00 Legend Double Dagger 5.5 5.1 97 LegendMM LegendMM 16.1 98.89     LegendNANA
06:00 Legend Double Dagger 7.1 5.0 87 LegendMM LegendMM 16.1 98.92     LegendNANA
07:00 Legend Double Dagger 9.2 6.0 80 LegendMM LegendMM 16.1 98.99     LegendNANA
08:00 Legend Double Dagger 11.6 6.7 72 LegendMM LegendMM 16.1 98.99     LegendNANA
09:00 Legend Double Dagger 13.7 7.0 64 LegendMM LegendMM 16.1 98.95     LegendNANA
10:00 Legend Double Dagger 15.5 6.5 55 LegendMM LegendMM 16.1 98.97     LegendNANA
11:00 Legend Double Dagger 16.3 6.3 51 LegendMM LegendMM 16.1 98.97     LegendNANA
12:00 Legend Double Dagger 16.8 6.0 49 LegendMM LegendMM 16.1 98.92     LegendNANA
13:00 Legend Double Dagger 17.7 6.1 46 LegendMM LegendMM 16.1 98.85     LegendNANA
14:00 Legend Double Dagger 18.5 6.5 45 LegendMM LegendMM 16.1 98.78     LegendNANA
15:00 Legend Double Dagger 19.2 6.5 43 LegendMM LegendMM 16.1 98.71     LegendNANA
16:00 Legend Double Dagger 19.2 6.5 43 LegendMM LegendMM 16.1 98.66     LegendNANA
17:00 Legend Double Dagger 18.9 6.8 45 LegendMM LegendMM 16.1 98.64     LegendNANA
18:00 Legend Double Dagger 17.8 7.4 50 LegendMM LegendMM 16.1 98.61     LegendNANA
19:00 Legend Double Dagger 16.0 8.0 59 LegendMM LegendMM 16.1 98.59     LegendNANA
20:00 Legend Double Dagger 15.3 8.6 64 LegendMM LegendMM 16.1 98.61     LegendNANA
21:00 Legend Double Dagger 15.0 7.8 62 LegendMM LegendMM 16.1 98.63     LegendNANA
22:00 Legend Double Dagger 14.3 7.6 64 LegendMM LegendMM 16.1 98.61     LegendNANA
23:00 Legend Double Dagger 13.9 7.7 66 LegendMM LegendMM 16.1 98.61     LegendNANA

Notes on Data Quality.

Legend

  • E = Estimated
  • M = Missing
  • NA = Not Available
  • ‡ = Partner data that is not subject to review by the National Climate Archives
Date modified: